Regional Weather Roundup
Issued by NWS

Home | Current Version | Previous Version | Graphics & Text | Print | Product List | Glossary On
Versions: 1 2 3 4 5 6 7 8 9 10 11 12 13 14 15 16 17 18 19 20 21 22 23 24 25 26 27 28 29 30 31 32 33 34 35 36 37 38 39 40 41 42 43 44 45 46 47 48 49 50
000
ASUS43 KMKX 282311
RWRWI

WISCONSIN REGIONAL WEATHER ROUNDUP
NATIONAL WEATHER SERVICE MILWAUKEE/SULLIVAN WI
600 PM CDT TUE MAR 28 2017

NOTE: "FAIR" INDICATES FEW OR NO CLOUDS BELOW 12,000 FEET WITH NO
SIGNIFICANT WEATHER AND/OR OBSTRUCTIONS TO VISIBILITY.

WIZ001-002-006>008-014>016-023>028-290000-
NORTHWEST WISCONSIN

CITY           SKY/WX    TMP DP  RH WIND       PRES   REMARKS
SUPERIOR ARPT  PTSUNNY   58  32  37 E6        30.14F
ASHLAND        MOSUNNY   43  31  62 N9        30.17R
HAYWARD        CLOUDY    63  17  17 N7        30.13F
SIREN            N/A     63  14  15 CALM      30.13S
CUMBERLAND     SUNNY     59  21  23 CALM      30.13F
RICE LAKE      SUNNY     60  23  24 CALM      30.15F
CHETEK         SUNNY     58  27  29 CALM      30.14S
LADYSMITH      SUNNY     60  23  24 CALM      30.15S
EAU CLAIRE     SUNNY     61  22  22 NE7       30.13R
MENOMONIE      SUNNY     60  30  32 SE5       30.14R
NEW RICHMOND   SUNNY     61  24  24 CALM      30.14R
OSCEOLA        SUNNY     63  27  25 NW3       30.16S
$$

WIZ003>005-009-010-017-018-290000-
NORTH CENTRAL WISCONSIN

CITY           SKY/WX    TMP DP  RH WIND       PRES   REMARKS
MANITOWISH WTR MOSUNNY   55  26  31 CALM      30.14S
ARBOR VITAE    SUNNY     57  23  27 NW5       30.14S
WOODRUFF       SUNNY     57  23  27 NW5       30.14S
RHINELANDER    SUNNY     59  25  27 CALM      30.15S
EAGLE RIVER    PTSUNNY   56  24  29 NE7       30.14S
LAND O LAKES   MOSUNNY   56  26  31 NE6       30.16S
PHILLIPS       SUNNY     58  21  23 CALM      30.13S
TOMAHAWK       SUNNY     58  22  24 E3        30.15R
MEDFORD        SUNNY     55  34  46 S5        30.15R
MERRILL        SUNNY     58  26  29 S5        30.15R
$$

WIZ029-030-035-036-043>047-290000-
CENTRAL WISCONSIN

CITY           SKY/WX    TMP DP  RH WIND       PRES   REMARKS
WAUSAU         SUNNY     58  26  29 SW3       30.13S
MOSINEE        SUNNY     57  25  28 VRB6      30.15S
MARSHFIELD     SUNNY     56  32  40 CALM      30.14S
STEVENS POINT  SUNNY     56  27  33 SE5       30.16S
WAUPACA        SUNNY     58  32  37 NE6       30.17R
WAUTOMA        SUNNY     56  32  40 E10       30.16R
WISC RAPIDS    SUNNY     59  29  31 E7        30.15S
CAMP DOUGLAS   MOSUNNY   59  36  41 E5        30.13S
$$

WIZ011>013-019>022-031-037>040-048>050-290000-
NORTHEAST WISCONSIN

CITY           SKY/WX    TMP DP  RH WIND       PRES   REMARKS
ANTIGO         SUNNY     56  27  32 CALM      30.15S
SHAWANO        SUNNY     56  34  44 E8        30.18R
OCONTO         SUNNY     47  36  64 CALM      30.19S
STURGEON BAY   SUNNY     43  36  76 E6        30.20F
GREEN BAY      SUNNY     50  39  66 NE7       30.19R
MANITOWOC      SUNNY     41  36  82 NE6       30.20R
APPLETON       MOSUNNY   52  23  32 NE8       30.16R
CLINTONVILLE   SUNNY     55  34  44 E8        30.17R
OSHKOSH        SUNNY     51  32  48 NE10      30.16R
$$

WIZ032>034-041-042-053>061-290000-
SOUTHWEST WISCONSIN

CITY           SKY/WX    TMP DP  RH WIND       PRES   REMARKS
LA CROSSE      SUNNY     61  38  42 W6        30.13R
SPARTA         SUNNY     60  32  35 E7        30.15R
VIROQUA        SUNNY     58  35  42 CALM      30.14R
BOSCOBEL       SUNNY     59  36  42 VRB5      30.14R
PRAIRIE DU CHI SUNNY     55  37  50 SE6       30.13S
PLATTEVILLE    SUNNY     53  43  69 S3        30.14S
$$

WIZ056-057-062-063-064-067-068-290000-
SOUTH CENTRAL WISCONSIN

CITY           SKY/WX    TMP DP  RH WIND       PRES   REMARKS
REEDSBURG      SUNNY     57  32  38 E6        30.13S
BARABOO/DELLS  SUNNY     56  32  39 E7        30.14R
LONE ROCK      SUNNY     59  38  45 E5        30.14R
MINERAL POINT  SUNNY     57  36  44 NE7       30.13R
MADISON        MOSUNNY   55  37  50 NE13      30.14R
MIDDLETON      SUNNY     57  40  51 E9        30.15R
WATERTOWN      SUNNY     55  41  60 N9        30.14R
MONROE         SUNNY     54  36  50 NE10      30.13R
JANESVILLE     MOSUNNY   59  36  41 NE12G17   30.12S
$$

WIZ051-052-058>065-066-070>072-290000-
SOUTHEAST WISCONSIN

CITY           SKY/WX    TMP DP  RH WIND       PRES   REMARKS
MILWAUKEE      FOG       37  33  85 N9        30.19R VSB 1   WCI  30
WAUKESHA       SUNNY     43  36  75 E8        30.17R
MILWAUKEE/TIMM CLOUDY    37  32  81 NE7       30.19R WCI  32
RACINE         CLOUDY    36  33  89 N8        30.20R WCI  30
KENOSHA        SUNNY     42  35  76 NE9       30.17R
FOND DU LAC    SUNNY     53  38  56 N10       30.16R
SHEBOYGAN      FOG       37  35  92 NE9       30.19R VSB 1/2 WCI  30
WEST BEND      SUNNY     45  39  81 E6        30.17R
JUNEAU         SUNNY     53  39  59 N7        30.15S
$$

LSZ147-162-290000-
LAKE SUPERIOR

STATION/POSITION TIME  TEMP    WIND        PRES    WAVE
                       AIR SEA DIR/SP/G            HT/PER
                 (UTC) (F)     (DEG/KT/KT) (MB)    (FT/S)
DEVILS ISLAND    2300   37      80/ 14/ 14 1023.0R
PORT WING        2240           30/ 16/ 20 1021.3S
SAXON HARBOR     2240   44      20/  2/  4 1021.7R
$$

LMZ867-665-643>646-290000-
LAKE MICHIGAN

STATION/POSITION TIME  TEMP    WIND        PRES    WAVE
                       AIR SEA DIR/SP/G            HT/PER
                 (UTC) (F)     (DEG/KT/KT) (MB)    (FT/S)
CHAMBERS ISLAND  2230   41     100/  2/  4 1021.7F
NORTHPORT PIER   2240   33     140/  6/  8 1022.0F
SISTER BAY       2151   38        CALM       N/A
KEWAUNEE LAKESHO 2242   34      40/  4/  7 1022.2R
SHEBOYGAN LAKESH 2300   34      10/ 12/ 13 1022.9R
PORT WASHINGTON  2240   36      50/  8/ 10 1023.0S
MILWAUKEE LAKESH 2250   35      20/ 10/ 11   N/A
KENOSHA   LAKESH 2300   34      20/ 14/ 16 1022.0
$$

TC  - TEMPERATURE IN CELSIUS
VSB - VISIBILITY IN STATUTE MILES
WCI - WIND CHILL INDEX
HX  - HEAT INDEX





USA.gov is the U.S. government's official web portal to all federal, state and local government web resources and services.